Date String (YYYY-MM-DD hh:mm:ss) UTC,Instrument flags,absolute air pressure of the measurement (hPa),sample flow rate (lpm),inlet stack bypass flow (lpm),air temperature of the measurement (°C),ambient temperature measured by the external sensor (°C),aerosol sample conditioner tube jacket temperature (°C),OPC LED temperature (°C),internal box temperature (°C),relative humidity of the measurement (%),span deviation,mass concentration of particles derived from Lorenz-Mie calculation of OPC scattering (μg/m³),mass concentration of particles derived from Lorenz-Mie calculation of OPC scattering (μg/m³),mass concentration of particles derived from Lorenz-Mie calculation of OPC scattering (μg/m³)
DateTimeUTC,F1_M11,P_M11,Q1_M11,Q2_M11,T1_M11,T2_M11,T3_M11,T4_M11,T5_M11,U1_M11,ZSPAN_M11,X2_M11,X0_M11,X1_M11
2023-10-31 08:00:00,SystemResetWarning,0838.8,5.01,000.00,020.9,020.0,000.0,029.2,022.2,11.1,0000.0,0004.20,0007.37,0003.98
2023-10-31 08:01:00,SystemResetWarning,0838.8,5.00,000.00,020.9,019.9,000.0,029.2,022.2,11.1,0000.0,0004.26,0007.38,0004.03
2023-10-31 08:02:00,SystemResetWarning,0838.8,4.99,000.00,020.9,019.8,000.0,029.2,022.2,11.1,0000.0,0004.28,0007.43,0004.06
2023-10-31 08:03:00,SystemResetWarning,0838.8,5.00,000.00,020.9,019.8,000.0,029.2,022.2,11.1,0000.0,0004.33,0007.51,0004.07
2023-10-31 08:04:00,SystemResetWarning,0838.8,5.00,000.00,020.8,019.7,000.0,029.2,022.1,11.1,0000.0,0004.34,0007.52,0004.07
2023-10-31 08:05:00,SystemResetWarning,0838.8,5.00,000.00,020.8,019.7,000.0,029.2,022.0,11.1,0000.0,0004.33,0006.68,0004.06
2023-10-31 08:06:00,SystemResetWarning,0838.8,5.01,000.00,020.8,019.6,000.0,029.2,022.0,11.1,0000.0,0004.34,0006.65,0004.06
2023-10-31 08:07:00,SystemResetWarning,0838.8,5.00,000.00,020.8,019.6,000.0,029.2,022.0,11.1,0000.0,0004.37,0006.76,0004.07
2023-10-31 08:08:00,SystemResetWarning,0838.8,5.00,000.00,020.7,019.6,000.0,029.2,022.0,11.1,0000.0,0004.38,0006.84,0004.08
2023-10-31 08:09:00,SystemResetWarning,0838.8,5.00,000.00,020.7,019.6,000.0,029.2,022.0,11.1,0000.0,0004.42,0006.94,0004.09
2023-10-31 08:10:00,SystemResetWarning,0838.8,4.99,000.00,020.7,019.5,000.0,029.2,022.0,11.1,0000.0,0004.45,0007.04,0004.11
2023-10-31 08:11:00,SystemResetWarning,0838.8,5.00,000.00,020.7,019.5,000.0,029.2,022.0,11.1,0000.0,0004.45,0006.99,0004.12
2023-10-31 08:12:00,SystemResetWarning,0838.8,5.01,000.00,020.7,019.5,000.0,029.2,022.0,11.1,0000.0,0004.46,0007.00,0004.12
2023-10-31 08:13:00,SystemResetWarning,0838.8,5.00,000.00,020.7,019.5,000.0,029.2,021.9,11.1,0000.0,0004.49,0006.93,0004.15
2023-10-31 08:14:00,SystemResetWarning,0838.8,5.00,000.00,020.7,019.5,000.0,029.1,022.0,11.1,0000.0,0004.50,0007.10,0004.18
2023-10-31 08:15:00,SystemResetWarning,0838.8,5.00,000.00,020.6,019.5,000.0,029.1,021.9,11.1,0000.0,0004.54,0007.43,0004.21
2023-10-31 08:16:00,SystemResetWarning,0838.8,5.00,000.00,020.6,019.5,000.0,029.1,021.9,11.1,0000.0,0004.63,0007.70,0004.27
2023-10-31 08:17:00,SystemResetWarning,0838.8,5.00,000.00,020.6,019.4,000.0,029.1,021.9,11.1,0000.0,0004.65,0007.70,0004.30
2023-10-31 08:18:00,SystemResetWarning,0838.9,5.00,000.00,020.6,019.4,000.0,029.1,021.9,11.2,0000.0,0004.69,0007.77,0004.32
2023-10-31 08:19:00,SystemResetWarning,0838.9,5.00,000.00,020.6,019.4,000.0,029.1,021.9,11.2,0000.0,0004.72,0007.83,0004.35
2023-10-31 08:20:00,SystemResetWarning,0838.8,5.00,000.00,020.6,019.4,000.0,029.1,021.9,11.2,0000.0,0004.78,0007.95,0004.38
2023-10-31 08:21:00,SystemResetWarning,0838.8,5.00,000.00,020.6,019.4,000.0,029.1,021.8,11.2,0000.0,0004.82,0008.05,0004.40
2023-10-31 08:22:00,SystemResetWarning,0838.8,5.01,000.00,020.6,019.4,000.0,029.1,021.9,11.1,0000.0,0004.86,0008.08,0004.44
2023-10-31 08:23:00,SystemResetWarning,0838.9,5.00,000.00,020.6,019.4,000.0,029.1,021.9,11.1,0000.0,0004.89,0008.15,0004.47
2023-10-31 08:24:00,SystemResetWarning,0838.8,5.00,000.00,020.6,019.4,000.0,029.0,021.9,11.2,0000.0,0004.92,0008.21,0004.49
2023-10-31 08:25:00,SystemResetWarning,0838.9,5.00,000.00,020.6,019.7,000.0,029.1,022.3,11.1,0000.0,0004.91,0008.10,0004.50
2023-10-31 08:26:00,SystemResetWarning,0838.9,5.00,000.00,020.8,020.5,000.0,029.1,022.8,11.0,0000.0,0004.91,0007.88,0004.53
2023-10-31 08:27:00,SystemResetWarning,0838.9,4.99,000.00,021.0,021.3,000.0,029.1,023.1,10.9,0000.0,0004.89,0008.22,0004.54
2023-10-31 08:28:00,SystemResetWarning,0838.9,4.99,000.00,021.1,021.3,000.0,029.2,023.0,10.8,0000.0,0004.92,0008.37,0004.56
2023-10-31 08:29:00,SystemResetWarning,0838.8,4.99,000.00,021.1,021.1,000.0,029.2,022.9,10.8,0000.0,0004.95,0008.41,0004.58
2023-10-31 08:30:00,SystemResetWarning,0838.8,5.00,000.00,021.1,020.9,000.0,029.2,022.7,10.8,0000.0,0004.95,0008.36,0004.58
2023-10-31 08:31:00,SystemResetWarning,0838.8,5.00,000.00,021.1,020.8,000.0,029.2,022.7,10.7,0000.0,0004.93,0008.36,0004.59
2023-10-31 08:32:00,SystemResetWarning,0838.8,5.01,000.00,021.1,020.6,000.0,029.3,022.6,10.7,0000.0,0004.88,0008.33,0004.58
2023-10-31 08:33:00,SystemResetWarning,0838.8,5.00,000.00,021.1,020.5,000.0,029.3,022.6,10.7,0000.0,0004.85,0008.24,0004.56
2023-10-31 08:34:00,SystemResetWarning,0838.8,5.00,000.00,021.1,020.4,000.0,029.3,022.5,10.7,0000.0,0004.83,0008.19,0004.54
2023-10-31 08:35:00,SystemResetWarning,0838.8,5.00,000.00,021.1,020.3,000.0,029.3,022.4,10.7,0000.0,0004.81,0008.15,0004.52
2023-10-31 08:36:00,SystemResetWarning,0838.8,5.00,000.00,021.0,020.3,000.0,029.3,022.4,10.7,0000.0,0004.81,0008.19,0004.52
2023-10-31 08:37:00,SystemResetWarning,0838.8,5.00,000.00,021.0,020.2,000.0,029.3,022.4,10.8,0000.0,0004.80,0008.45,0004.50
2023-10-31 08:38:00,SystemResetWarning,0838.8,5.00,000.00,021.0,020.1,000.0,029.3,022.4,10.8,0000.0,0004.80,0008.18,0004.49
2023-10-31 08:39:00,SystemResetWarning,0838.8,5.00,000.00,021.0,020.0,000.0,029.3,022.3,10.8,0000.0,0004.78,0007.94,0004.48
2023-10-31 08:40:00,SystemResetWarning,0838.8,5.01,000.00,021.0,020.0,000.0,029.3,022.3,10.8,0000.0,0004.71,0008.12,0004.45
2023-10-31 08:41:00,SystemResetWarning,0838.8,5.01,000.00,020.9,019.9,000.0,029.3,022.3,10.9,0000.5,0004.68,0008.11,0004.44
2023-10-31 08:42:00,SystemResetWarning,0838.8,5.00,000.00,020.9,019.9,000.0,029.3,022.2,10.8,0000.3,0004.67,0008.07,0004.42
2023-10-31 08:43:00,SystemResetWarning,0838.8,5.00,000.00,020.9,019.8,000.0,029.3,022.2,10.8,-001.4,0004.66,0007.95,0004.41
2023-10-31 08:44:00,SystemResetWarning,0838.8,4.99,000.00,020.9,019.7,000.0,029.3,022.1,10.8,-000.6,0004.67,0008.08,0004.42
2023-10-31 08:45:00,SystemResetWarning,0838.8,4.99,000.00,020.9,019.7,000.0,029.3,022.1,10.8,0001.2,0004.66,0008.25,0004.41
2023-10-31 08:46:00,SystemResetWarning,0838.7,4.99,000.00,020.8,019.7,000.0,029.3,022.1,10.8,0001.3,0004.64,0008.20,0004.41
2023-10-31 08:47:00,SystemResetWarning,0838.7,5.01,000.00,020.8,019.6,000.0,029.3,022.1,10.8,-000.5,0004.62,0008.18,0004.40
2023-10-31 08:48:00,SystemResetWarning,0838.7,5.00,000.00,020.8,019.6,000.0,029.3,022.1,10.7,-001.6,0004.62,0008.07,0004.40
2023-10-31 08:49:00,SystemResetWarning,0838.7,5.00,000.00,020.8,019.5,000.0,029.3,022.1,10.8,-000.7,0004.63,0007.99,0004.41
2023-10-31 08:50:00,SystemResetWarning,0838.7,5.01,000.00,020.8,019.5,000.0,029.2,022.0,10.8,0000.0,0004.64,0008.10,0004.39
2023-10-31 08:51:00,SystemResetWarning,0838.7,5.01,000.00,020.7,019.5,000.0,029.2,022.0,10.8,0000.0,0004.67,0008.02,0004.39
2023-10-31 08:52:00,SystemResetWarning,0838.7,5.00,000.00,020.7,019.5,000.0,029.2,022.0,10.8,0000.0,0004.68,0007.91,0004.40
2023-10-31 08:53:00,SystemResetWarning,0838.7,5.00,000.00,020.7,019.5,000.0,029.2,022.0,10.8,0000.0,0004.68,0007.91,0004.40
2023-10-31 08:54:00,SystemResetWarning,0838.7,5.00,000.00,020.7,019.5,000.0,029.2,022.0,10.9,0000.0,0004.68,0007.92,0004.39
2023-10-31 08:55:00,SystemResetWarning,0838.6,5.00,000.00,020.7,019.5,000.0,029.2,022.0,10.9,0000.0,0004.66,0007.81,0004.38
2023-10-31 08:56:00,SystemResetWarning,0838.6,5.00,000.00,020.7,019.5,000.0,029.2,022.0,11.0,0000.0,0004.64,0007.58,0004.36
2023-10-31 08:57:00,SystemResetWarning,0838.6,4.99,000.00,020.7,019.5,000.0,029.2,022.0,10.9,0000.0,0004.64,0007.57,0004.35
2023-10-31 08:58:00,SystemResetWarning,0838.7,5.00,000.00,020.6,019.5,000.0,029.1,022.0,10.9,0000.0,0004.62,0007.56,0004.34
2023-10-31 08:59:00,SystemResetWarning,0838.6,5.00,000.00,020.6,019.5,000.0,029.1,022.0,10.9,0000.0,0004.61,0007.55,0004.31
